Time,TemperatureF,DewpointF,PressureIn,WindDirection,WindDirectionDegrees,WindSpeedMPH,WindSpeedGustMPH,Humidity,HourlyPrecipIn,Conditions,Clouds,dailyrainin,SoftwareType,DateUTC
2013-10-07 00:01:00,60.4,59.0,30.04,West,259,8.0,9.0,95,0.00,,,0.02,Wunderground v.1.15,2013-10-07 04:01:00,
2013-10-07 00:02:00,60.4,59.0,30.04,SE,137,8.0,9.0,95,0.00,,,0.02,Wunderground v.1.15,2013-10-07 04:02:00,
2013-10-07 00:05:00,60.5,59.1,30.04,SSE,167,7.0,9.0,95,0.00,,,0.02,Wunderground v.1.15,2013-10-07 04:05:00,
2013-10-07 00:06:00,60.5,59.1,30.04,SSW,200,7.0,9.0,95,0.00,,,0.00,Wunderground v.1.15,2013-10-07 04:06:00,
2013-10-07 00:10:00,60.5,59.1,30.04,WSW,238,5.0,5.0,95,0.00,,,0.00,Wunderground v.1.15,2013-10-07 04:10:00,
2013-10-07 00:13:00,60.6,59.2,30.04,South,183,5.0,7.0,95,0.00,,,0.00,Wunderground v.1.15,2013-10-07 04:13:00,
2013-10-07 00:19:00,60.6,59.2,30.04,ENE,71,4.0,14.0,95,0.00,,,0.00,Wunderground v.1.15,2013-10-07 04:19:00,
2013-10-07 00:25:00,60.7,59.3,30.04,SSW,205,6.0,14.0,95,0.00,,,0.00,Wunderground v.1.15,2013-10-07 04:25:00,
2013-10-07 00:30:00,60.8,59.4,30.03,SSE,168,8.0,8.0,95,0.00,,,0.00,Wunderground v.1.15,2013-10-07 04:30:00,
2013-10-07 00:36:00,60.9,59.5,30.02,SSE,163,8.0,13.0,95,0.00,,,0.00,Wunderground v.1.15,2013-10-07 04:36:00,
2013-10-07 00:42:00,60.9,59.5,30.02,ESE,121,10.0,14.0,95,0.00,,,0.00,Wunderground v.1.15,2013-10-07 04:42:00,
2013-10-07 00:48:00,61.0,59.6,30.03,SSW,210,10.0,14.0,95,0.00,,,0.00,Wunderground v.1.15,2013-10-07 04:48:00,
2013-10-07 00:54:00,61.1,59.7,30.03,SSW,206,8.0,15.0,95,0.00,,,0.00,Wunderground v.1.15,2013-10-07 04:54:00,
2013-10-07 01:00:00,61.1,59.7,30.02,SSW,203,9.0,23.0,95,0.00,,,0.00,Wunderground v.1.15,2013-10-07 05:00:00,
2013-10-07 01:06:00,61.2,59.8,30.03,SSE,153,9.0,23.0,95,0.00,,,0.00,Wunderground v.1.15,2013-10-07 05:06:00,
2013-10-07 01:12:00,61.2,59.8,30.02,SE,134,10.0,23.0,95,0.00,,,0.00,Wunderground v.1.15,2013-10-07 05:12:00,
2013-10-07 01:18:00,61.3,59.9,30.02,SSW,197,10.0,23.0,95,0.00,,,0.00,Wunderground v.1.15,2013-10-07 05:18:00,
2013-10-07 01:24:00,61.3,59.9,30.02,WSW,244,9.0,23.0,95,0.00,,,0.00,Wunderground v.1.15,2013-10-07 05:24:00,
2013-10-07 01:30:00,61.2,59.8,30.02,SE,141,7.0,23.0,95,0.00,,,0.00,Wunderground v.1.15,2013-10-07 05:30:00,
2013-10-07 01:36:00,61.2,59.5,30.02,SW,219,7.0,23.0,94,0.00,,,0.00,Wunderground v.1.15,2013-10-07 05:36:00,
2013-10-07 01:41:00,61.2,59.8,30.02,South,182,6.0,23.0,95,0.00,,,0.00,Wunderground v.1.15,2013-10-07 05:41:00,
2013-10-07 01:47:00,61.3,59.9,30.02,WSW,245,6.0,23.0,95,0.00,,,0.00,Wunderground v.1.15,2013-10-07 05:47:00,
2013-10-07 01:53:00,61.4,59.7,30.01,SE,136,6.0,23.0,94,0.00,,,0.00,Wunderground v.1.15,2013-10-07 05:53:00,
2013-10-07 01:59:00,61.4,60.0,30.01,South,183,7.0,23.0,95,0.00,,,0.00,Wunderground v.1.15,2013-10-07 05:59:00,
2013-10-07 02:04:00,61.5,60.1,30.01,SE,143,7.0,23.0,95,0.00,,,0.00,Wunderground v.1.15,2013-10-07 06:04:00,
2013-10-07 02:10:00,61.5,59.8,30.01,SE,134,5.0,5.0,94,0.00,,,0.00,Wunderground v.1.15,2013-10-07 06:10:00,
2013-10-07 02:16:00,61.6,59.9,30.01,South,186,4.0,23.0,94,0.00,,,0.00,Wunderground v.1.15,2013-10-07 06:16:00,
2013-10-07 02:22:00,61.5,59.8,30.00,WSW,251,6.0,23.0,94,0.00,,,0.00,Wunderground v.1.15,2013-10-07 06:22:00,
2013-10-07 02:28:00,61.5,59.8,30.00,SE,143,5.0,23.0,94,0.00,,,0.00,Wunderground v.1.15,2013-10-07 06:28:00,
2013-10-07 02:33:00,61.4,59.7,30.00,SE,127,4.0,23.0,94,0.00,,,0.00,Wunderground v.1.15,2013-10-07 06:33:00,
2013-10-07 02:39:00,61.4,60.0,30.00,West,272,5.0,23.0,95,0.00,,,0.00,Wunderground v.1.15,2013-10-07 06:39:00,
2013-10-07 02:45:00,61.5,60.1,30.00,SSE,163,6.0,23.0,95,0.00,,,0.00,Wunderground v.1.15,2013-10-07 06:45:00,
2013-10-07 02:50:00,61.4,60.0,30.00,SSW,194,6.0,23.0,95,0.00,,,0.00,Wunderground v.1.15,2013-10-07 06:50:00,
2013-10-07 02:56:00,61.5,60.1,30.00,ESE,119,6.0,23.0,95,0.00,,,0.00,Wunderground v.1.15,2013-10-07 06:56:00,
2013-10-07 03:02:00,61.5,60.1,30.00,SSE,167,5.0,23.0,95,0.00,,,0.00,Wunderground v.1.15,2013-10-07 07:02:00,
2013-10-07 03:08:00,61.6,60.2,29.99,SSW,198,5.0,23.0,95,0.00,,,0.00,Wunderground v.1.15,2013-10-07 07:08:00,
2013-10-07 03:13:00,61.8,60.4,29.99,SSW,194,5.0,23.0,95,0.00,,,0.00,Wunderground v.1.15,2013-10-07 07:13:00,
2013-10-07 03:19:00,61.9,60.5,29.98,SE,132,6.0,23.0,95,0.00,,,0.00,Wunderground v.1.15,2013-10-07 07:19:00,
2013-10-07 03:25:00,62.0,60.3,29.98,SE,132,6.0,23.0,94,0.00,,,0.00,Wunderground v.1.15,2013-10-07 07:25:00,
2013-10-07 03:30:00,62.0,60.6,29.98,SE,124,4.0,23.0,95,0.00,,,0.00,Wunderground v.1.15,2013-10-07 07:30:00,
2013-10-07 03:36:00,62.1,60.7,29.97,ESE,113,3.0,23.0,95,0.00,,,0.00,Wunderground v.1.15,2013-10-07 07:36:00,
2013-10-07 03:42:00,62.2,60.8,29.97,South,180,4.0,23.0,95,0.00,,,0.00,Wunderground v.1.15,2013-10-07 07:42:00,
2013-10-07 03:48:00,62.3,60.8,29.97,ESE,115,6.0,23.0,95,0.00,,,0.00,Wunderground v.1.15,2013-10-07 07:48:00,
2013-10-07 03:53:00,62.4,60.7,29.97,East,80,6.0,23.0,94,0.00,,,0.00,Wunderground v.1.15,2013-10-07 07:53:00,
2013-10-07 03:59:00,62.5,60.7,29.97,South,171,4.0,23.0,94,0.00,,,0.00,Wunderground v.1.15,2013-10-07 07:59:00,
2013-10-07 04:05:00,62.6,61.4,29.97,South,172,6.0,23.0,96,0.00,,,0.00,Wunderground v.1.15,2013-10-07 08:05:00,
2013-10-07 04:11:00,62.7,60.9,29.96,South,190,6.0,23.0,94,0.00,,,0.00,Wunderground v.1.15,2013-10-07 08:11:00,
2013-10-07 04:16:00,62.7,60.9,29.96,ESE,115,5.0,23.0,94,0.00,,,0.00,Wunderground v.1.15,2013-10-07 08:16:00,
2013-10-07 04:22:00,62.7,60.6,29.97,NNE,28,3.0,23.0,93,0.00,,,0.00,Wunderground v.1.15,2013-10-07 08:22:00,
2013-10-07 04:28:00,62.7,60.6,29.96,SSE,157,3.0,23.0,93,0.00,,,0.00,Wunderground v.1.15,2013-10-07 08:28:00,
2013-10-07 04:34:00,62.7,60.6,29.96,South,173,4.0,23.0,93,0.00,,,0.00,Wunderground v.1.15,2013-10-07 08:34:00,
2013-10-07 04:40:00,62.6,60.5,29.96,South,180,4.0,23.0,93,0.00,,,0.00,Wunderground v.1.15,2013-10-07 08:40:00,
2013-10-07 04:46:00,62.6,60.5,29.95,SSW,200,5.0,23.0,93,0.00,,,0.00,Wunderground v.1.15,2013-10-07 08:46:00,
2013-10-07 04:52:00,62.5,60.4,29.96,SSE,161,6.0,23.0,93,0.00,,,0.00,Wunderground v.1.15,2013-10-07 08:52:00,
2013-10-07 04:57:00,62.5,60.4,29.96,WSW,254,5.0,23.0,93,0.00,,,0.00,Wunderground v.1.15,2013-10-07 08:57:00,
2013-10-07 05:03:00,62.5,60.4,29.97,SSE,154,3.0,23.0,93,0.00,,,0.00,Wunderground v.1.15,2013-10-07 09:03:00,
2013-10-07 05:09:00,62.6,60.5,29.96,SSW,200,5.0,23.0,93,0.00,,,0.00,Wunderground v.1.15,2013-10-07 09:09:00,
2013-10-07 05:15:00,62.6,60.5,29.96,WSW,239,4.0,23.0,93,0.00,,,0.00,Wunderground v.1.15,2013-10-07 09:15:00,
2013-10-07 05:20:00,62.7,60.6,29.96,South,186,4.0,4.0,93,0.00,,,0.00,Wunderground v.1.15,2013-10-07 09:20:00,
2013-10-07 05:26:00,62.6,60.5,29.95,SE,143,3.0,23.0,93,0.00,,,0.00,Wunderground v.1.15,2013-10-07 09:26:00,
2013-10-07 05:32:00,62.7,60.6,29.95,SE,142,4.0,23.0,93,0.00,,,0.00,Wunderground v.1.15,2013-10-07 09:32:00,
2013-10-07 05:38:00,62.8,60.7,29.95,South,190,3.0,23.0,93,0.00,,,0.00,Wunderground v.1.15,2013-10-07 09:38:00,
2013-10-07 05:44:00,62.8,61.0,29.95,SSE,165,2.0,23.0,94,0.00,,,0.00,Wunderground v.1.15,2013-10-07 09:44:00,
2013-10-07 05:50:00,62.8,61.0,29.95,South,184,4.0,4.0,94,0.00,,,0.00,Wunderground v.1.15,2013-10-07 09:50:00,
2013-10-07 05:56:00,62.9,61.1,29.95,SSW,192,3.0,23.0,94,0.00,,,0.00,Wunderground v.1.15,2013-10-07 09:56:00,
2013-10-07 06:01:00,63.0,61.2,29.95,South,173,3.0,23.0,94,0.00,,,0.00,Wunderground v.1.15,2013-10-07 10:01:00,
2013-10-07 06:07:00,63.1,61.3,29.95,SSE,167,3.0,23.0,94,0.00,,,0.00,Wunderground v.1.15,2013-10-07 10:07:00,
2013-10-07 06:13:00,63.1,61.3,29.94,SSW,205,4.0,23.0,94,0.00,,,0.00,Wunderground v.1.15,2013-10-07 10:13:00,
2013-10-07 06:19:00,63.3,61.5,29.93,SE,140,5.0,23.0,94,0.00,,,0.00,Wunderground v.1.15,2013-10-07 10:19:00,
2013-10-07 06:24:00,63.4,61.6,29.93,SSE,167,5.0,23.0,94,0.00,,,0.00,Wunderground v.1.15,2013-10-07 10:24:00,
2013-10-07 06:30:00,63.5,61.7,29.93,SE,146,4.0,23.0,94,0.00,,,0.00,Wunderground v.1.15,2013-10-07 10:30:00,
2013-10-07 06:36:00,63.6,61.5,29.93,SSW,198,4.0,23.0,93,0.00,,,0.00,Wunderground v.1.15,2013-10-07 10:36:00,
2013-10-07 06:42:00,63.8,61.7,29.93,SW,232,4.0,23.0,93,0.00,,,0.00,Wunderground v.1.15,2013-10-07 10:42:00,
2013-10-07 06:48:00,63.9,61.8,29.93,SW,215,5.0,23.0,93,0.00,,,0.00,Wunderground v.1.15,2013-10-07 10:48:00,
2013-10-07 06:54:00,63.9,61.8,29.93,SSW,193,4.0,23.0,93,0.00,,,0.00,Wunderground v.1.15,2013-10-07 10:54:00,
2013-10-07 07:00:00,63.9,61.8,29.93,SE,132,3.0,23.0,93,0.00,,,0.00,Wunderground v.1.15,2013-10-07 11:00:00,
2013-10-07 07:05:00,63.9,61.8,29.93,SW,229,3.0,23.0,93,0.00,,,0.00,Wunderground v.1.15,2013-10-07 11:05:00,
2013-10-07 07:10:00,63.8,61.7,29.92,SSW,206,3.0,3.0,93,0.00,,,0.00,Wunderground v.1.15,2013-10-07 11:10:00,
2013-10-07 07:16:00,63.8,61.7,29.92,SSW,196,2.0,23.0,93,0.00,,,0.00,Wunderground v.1.15,2013-10-07 11:16:00,
2013-10-07 07:22:00,63.8,61.7,29.92,SW,229,2.0,23.0,93,0.00,,,0.00,Wunderground v.1.15,2013-10-07 11:22:00,
2013-10-07 07:28:00,63.8,61.7,29.92,SW,224,1.0,23.0,93,0.00,,,0.00,Wunderground v.1.15,2013-10-07 11:28:00,
2013-10-07 07:34:00,63.9,61.5,29.92,SE,136,1.0,23.0,92,0.00,,,0.00,Wunderground v.1.15,2013-10-07 11:34:00,
2013-10-07 07:39:00,64.1,61.7,29.93,NNW,336,1.0,23.0,92,0.00,,,0.00,Wunderground v.1.15,2013-10-07 11:39:00,
2013-10-07 07:45:00,64.1,61.7,29.92,WNW,286,1.0,23.0,92,0.00,,,0.00,Wunderground v.1.15,2013-10-07 11:45:00,
2013-10-07 07:51:00,64.0,61.6,29.93,WNW,286,1.0,23.0,92,0.00,,,0.00,Wunderground v.1.15,2013-10-07 11:51:00,
2013-10-07 07:57:00,64.2,61.8,29.92,SSW,198,1.0,23.0,92,0.00,,,0.00,Wunderground v.1.15,2013-10-07 11:57:00,
2013-10-07 08:02:00,64.5,61.8,29.92,SE,135,3.0,23.0,91,0.00,,,0.00,Wunderground v.1.15,2013-10-07 12:02:00,
2013-10-07 08:08:00,64.8,62.1,29.91,SSE,168,4.0,23.0,91,0.00,,,0.00,Wunderground v.1.15,2013-10-07 12:08:00,
2013-10-07 08:14:00,64.9,62.2,29.91,SSE,157,2.0,23.0,91,0.00,,,0.00,Wunderground v.1.15,2013-10-07 12:14:00,
2013-10-07 08:19:00,65.2,62.5,29.91,SSE,150,2.0,23.0,91,0.00,,,0.00,Wunderground v.1.15,2013-10-07 12:19:00,
2013-10-07 08:25:00,65.5,62.8,29.91,South,184,3.0,23.0,91,0.00,,,0.00,Wunderground v.1.15,2013-10-07 12:25:00,
2013-10-07 08:31:00,65.8,63.1,29.90,SSE,163,5.0,23.0,91,0.00,,,0.00,Wunderground v.1.15,2013-10-07 12:31:00,
2013-10-07 08:37:00,66.1,63.4,29.90,SW,215,6.0,23.0,91,0.00,,,0.00,Wunderground v.1.15,2013-10-07 12:37:00,
2013-10-07 08:43:00,66.5,63.8,29.90,SW,219,5.0,23.0,91,0.00,,,0.00,Wunderground v.1.15,2013-10-07 12:43:00,
2013-10-07 08:48:00,66.7,63.7,29.91,South,179,5.0,23.0,90,0.00,,,0.00,Wunderground v.1.15,2013-10-07 12:48:00,
2013-10-07 08:54:00,67.1,64.1,29.90,South,186,5.0,23.0,90,0.00,,,0.00,Wunderground v.1.15,2013-10-07 12:54:00,
2013-10-07 09:00:00,67.4,64.0,29.90,South,190,5.0,23.0,89,0.00,,,0.00,Wunderground v.1.15,2013-10-07 13:00:00,
2013-10-07 09:05:00,67.7,64.3,29.90,SW,215,4.0,23.0,89,0.00,,,0.00,Wunderground v.1.15,2013-10-07 13:05:00,
2013-10-07 09:11:00,68.1,64.4,29.89,SW,214,3.0,23.0,88,0.00,,,0.00,Wunderground v.1.15,2013-10-07 13:11:00,
2013-10-07 09:16:00,68.6,64.6,29.89,SE,128,5.0,23.0,87,0.00,,,0.00,Wunderground v.1.15,2013-10-07 13:16:00,
2013-10-07 09:22:00,68.8,64.1,29.88,South,175,5.0,23.0,85,0.00,,,0.00,Wunderground v.1.15,2013-10-07 13:22:00,
2013-10-07 09:28:00,68.8,64.1,29.88,SE,132,6.0,23.0,85,0.00,,,0.00,Wunderground v.1.15,2013-10-07 13:28:00,
2013-10-07 09:34:00,69.2,64.5,29.88,SSE,168,7.0,23.0,85,0.00,,,0.00,Wunderground v.1.15,2013-10-07 13:34:00,
2013-10-07 09:40:00,69.8,64.4,29.88,SSW,211,9.0,9.0,83,0.00,,,0.00,Wunderground v.1.15,2013-10-07 13:40:00,
2013-10-07 09:46:00,70.2,64.4,29.87,SSE,153,7.0,23.0,82,0.00,,,0.00,Wunderground v.1.15,2013-10-07 13:46:00,
2013-10-07 09:51:00,70.5,64.7,29.87,SSW,210,7.0,23.0,82,0.00,,,0.00,Wunderground v.1.15,2013-10-07 13:51:00,
2013-10-07 09:57:00,70.4,64.6,29.88,SSW,192,8.0,23.0,82,0.00,,,0.00,Wunderground v.1.15,2013-10-07 13:57:00,
2013-10-07 10:03:00,70.4,64.6,29.87,SSW,203,8.0,23.0,82,0.00,,,0.00,Wunderground v.1.15,2013-10-07 14:03:00,
2013-10-07 10:09:00,70.4,64.6,29.87,SW,231,8.0,23.0,82,0.00,,,0.00,Wunderground v.1.15,2013-10-07 14:09:00,
2013-10-07 10:14:00,70.5,64.7,29.86,SSW,207,9.0,23.0,82,0.00,,,0.00,Wunderground v.1.15,2013-10-07 14:14:00,
2013-10-07 10:20:00,70.8,65.0,29.86,SSW,194,6.0,23.0,82,0.00,,,0.00,Wunderground v.1.15,2013-10-07 14:20:00,
2013-10-07 10:25:00,71.0,65.2,29.86,SSW,193,5.0,23.0,82,0.00,,,0.00,Wunderground v.1.15,2013-10-07 14:25:00,
2013-10-07 10:31:00,71.1,65.0,29.86,SE,126,6.0,23.0,81,0.00,,,0.00,Wunderground v.1.15,2013-10-07 14:31:00,
2013-10-07 10:36:00,71.1,65.3,29.86,South,169,6.0,23.0,82,0.00,,,0.00,Wunderground v.1.15,2013-10-07 14:36:00,
2013-10-07 10:42:00,70.7,65.3,29.85,ESE,108,5.0,23.0,83,0.00,,,0.00,Wunderground v.1.15,2013-10-07 14:42:00,
2013-10-07 10:48:00,70.9,65.5,29.84,SSW,213,6.0,23.0,83,0.00,,,0.00,Wunderground v.1.15,2013-10-07 14:48:00,
2013-10-07 10:53:00,71.4,65.6,29.84,SSE,150,6.0,23.0,82,0.00,,,0.00,Wunderground v.1.15,2013-10-07 14:53:00,
2013-10-07 10:59:00,71.4,65.6,29.84,SW,235,8.0,23.0,82,0.00,,,0.00,Wunderground v.1.15,2013-10-07 14:59:00,
2013-10-07 11:05:00,71.2,65.8,29.84,ESE,105,6.0,23.0,83,0.00,,,0.00,Wunderground v.1.15,2013-10-07 15:05:00,
2013-10-07 11:11:00,70.9,65.8,29.84,West,261,5.0,23.0,84,0.00,,,0.00,Wunderground v.1.15,2013-10-07 15:11:00,
2013-10-07 11:16:00,71.2,65.8,29.84,South,173,4.0,23.0,83,0.00,,,0.00,Wunderground v.1.15,2013-10-07 15:16:00,
2013-10-07 11:22:00,71.5,66.1,29.83,South,190,3.0,9.0,83,0.00,,,0.00,Wunderground v.1.15,2013-10-07 15:22:00,
2013-10-07 11:28:00,71.7,65.9,29.82,South,169,5.0,23.0,82,0.00,,,0.00,Wunderground v.1.15,2013-10-07 15:28:00,
2013-10-07 11:34:00,71.6,65.5,29.82,South,184,8.0,23.0,81,0.00,,,0.00,Wunderground v.1.15,2013-10-07 15:34:00,
2013-10-07 11:40:00,70.7,65.3,29.82,SSW,201,8.0,23.0,83,0.00,,,0.00,Wunderground v.1.15,2013-10-07 15:40:00,
2013-10-07 11:46:00,70.0,64.9,29.81,SSE,150,8.0,23.0,84,0.00,,,0.00,Wunderground v.1.15,2013-10-07 15:46:00,
2013-10-07 11:52:00,69.6,64.9,29.81,SE,136,7.0,23.0,85,0.00,,,0.00,Wunderground v.1.15,2013-10-07 15:52:00,
2013-10-07 11:58:00,69.4,65.4,29.81,SSE,165,7.0,23.0,87,0.00,,,0.00,Wunderground v.1.15,2013-10-07 15:58:00,
2013-10-07 12:03:00,69.4,65.0,29.80,SSE,166,6.0,23.0,86,0.00,,,0.00,Wunderground v.1.15,2013-10-07 16:03:00,
2013-10-07 12:09:00,69.4,65.4,29.80,WSW,240,7.0,23.0,87,0.00,,,0.00,Wunderground v.1.15,2013-10-07 16:09:00,
2013-10-07 12:15:00,68.9,65.5,29.79,SSW,207,7.0,23.0,89,0.38,,,0.02,Wunderground v.1.15,2013-10-07 16:15:00,
2013-10-07 12:21:00,68.4,65.7,29.78,South,175,8.0,23.0,91,0.13,,,0.04,Wunderground v.1.15,2013-10-07 16:21:00,
2013-10-07 12:26:00,68.4,65.7,29.78,WSW,244,6.0,23.0,91,0.06,,,0.04,Wunderground v.1.15,2013-10-07 16:26:00,
2013-10-07 12:32:00,68.6,65.5,29.76,SW,224,6.0,23.0,90,0.04,,,0.04,Wunderground v.1.15,2013-10-07 16:32:00,
2013-10-07 12:38:00,69.0,65.9,29.76,SW,223,7.0,23.0,90,0.00,,,0.04,Wunderground v.1.15,2013-10-07 16:38:00,
2013-10-07 12:44:00,69.0,65.9,29.76,South,187,8.0,23.0,90,0.00,,,0.04,Wunderground v.1.15,2013-10-07 16:44:00,
2013-10-07 12:50:00,68.3,65.6,29.75,SE,134,9.0,9.0,91,0.35,,,0.09,Wunderground v.1.15,2013-10-07 16:50:00,
2013-10-07 12:56:00,68.0,65.6,29.74,East,84,9.0,23.0,92,0.11,,,0.10,Wunderground v.1.15,2013-10-07 16:56:00,
2013-10-07 13:02:00,68.1,65.4,29.73,SW,225,9.0,27.0,91,0.07,,,0.11,Wunderground v.1.15,2013-10-07 17:02:00,
2013-10-07 13:07:00,68.2,65.5,29.73,SSW,195,11.0,27.0,91,0.07,,,0.11,Wunderground v.1.15,2013-10-07 17:07:00,
2013-10-07 13:13:00,68.3,65.6,29.73,SSW,203,9.0,23.0,91,0.05,,,0.11,Wunderground v.1.15,2013-10-07 17:13:00,
2013-10-07 13:19:00,68.2,65.5,29.73,SSW,194,9.0,23.0,91,0.00,,,0.12,Wunderground v.1.15,2013-10-07 17:19:00,
2013-10-07 13:25:00,68.1,65.7,29.72,SSW,213,9.0,23.0,92,0.00,,,0.12,Wunderground v.1.15,2013-10-07 17:25:00,
2013-10-07 13:31:00,68.1,66.0,29.71,South,187,7.0,23.0,93,0.05,,,0.13,Wunderground v.1.15,2013-10-07 17:31:00,
2013-10-07 13:37:00,68.3,65.9,29.69,East,101,7.0,23.0,92,0.05,,,0.13,Wunderground v.1.15,2013-10-07 17:37:00,
2013-10-07 13:43:00,68.5,66.1,29.69,SSW,193,8.0,23.0,92,0.04,,,0.13,Wunderground v.1.15,2013-10-07 17:43:00,
2013-10-07 13:49:00,68.5,66.1,29.70,South,187,9.0,23.0,92,0.00,,,0.13,Wunderground v.1.15,2013-10-07 17:49:00,
2013-10-07 13:54:00,68.4,66.0,29.69,SSW,200,8.0,23.0,92,0.00,,,0.13,Wunderground v.1.15,2013-10-07 17:54:00,
2013-10-07 14:00:00,68.5,66.1,29.68,South,174,7.0,23.0,92,0.00,,,0.13,Wunderground v.1.15,2013-10-07 18:00:00,
2013-10-07 14:06:00,68.7,66.3,29.67,South,169,7.0,23.0,92,0.00,,,0.13,Wunderground v.1.15,2013-10-07 18:06:00,
2013-10-07 14:12:00,68.8,66.4,29.67,South,169,6.0,23.0,92,0.00,,,0.13,Wunderground v.1.15,2013-10-07 18:12:00,
2013-10-07 14:17:00,68.8,66.4,29.67,SSW,205,6.0,23.0,92,0.00,,,0.13,Wunderground v.1.15,2013-10-07 18:17:00,
2013-10-07 14:23:00,68.7,66.3,29.67,SSE,165,6.0,23.0,92,0.00,,,0.13,Wunderground v.1.15,2013-10-07 18:23:00,
2013-10-07 14:29:00,68.6,66.5,29.68,SSW,193,6.0,23.0,93,0.00,,,0.14,Wunderground v.1.15,2013-10-07 18:29:00,
2013-10-07 14:35:00,68.5,66.4,29.70,North,355,3.0,23.0,93,0.24,,,0.16,Wunderground v.1.15,2013-10-07 18:35:00,
2013-10-07 14:41:00,67.1,64.1,29.75,NW,315,11.0,24.0,90,6.40,,,0.37,Wunderground v.1.15,2013-10-07 18:41:00,
2013-10-07 14:47:00,64.5,62.1,29.72,West,276,18.0,24.0,92,0.46,,,0.52,Wunderground v.1.15,2013-10-07 18:47:00,
2013-10-07 14:53:00,64.0,61.6,29.74,West,271,12.0,23.0,92,0.37,,,0.56,Wunderground v.1.15,2013-10-07 18:53:00,
2013-10-07 14:58:00,63.9,61.8,29.73,West,278,9.0,23.0,93,0.42,,,0.58,Wunderground v.1.15,2013-10-07 18:58:00,
2013-10-07 15:04:00,63.8,61.7,29.73,WNW,282,9.0,23.0,93,0.22,,,0.60,Wunderground v.1.15,2013-10-07 19:04:00,
2013-10-07 15:10:00,63.7,61.6,29.74,West,277,8.0,23.0,93,0.11,,,0.61,Wunderground v.1.15,2013-10-07 19:10:00,
2013-10-07 15:16:00,63.7,61.6,29.74,WNW,294,9.0,23.0,93,0.14,,,0.63,Wunderground v.1.15,2013-10-07 19:16:00,
2013-10-07 15:21:00,63.7,61.6,29.74,WNW,282,9.0,23.0,93,0.14,,,0.64,Wunderground v.1.15,2013-10-07 19:21:00,
2013-10-07 15:27:00,63.8,61.7,29.74,WNW,295,8.0,23.0,93,0.06,,,0.64,Wunderground v.1.15,2013-10-07 19:27:00,
2013-10-07 15:33:00,63.3,60.9,29.75,NNW,334,7.0,23.0,92,0.06,,,0.65,Wunderground v.1.15,2013-10-07 19:33:00,
2013-10-07 15:39:00,61.9,58.9,29.75,WNW,288,9.0,23.0,90,0.05,,,0.65,Wunderground v.1.15,2013-10-07 19:39:00,
2013-10-07 15:45:00,61.2,58.6,29.74,NW,309,8.0,23.0,91,0.05,,,0.66,Wunderground v.1.15,2013-10-07 19:45:00,
2013-10-07 15:51:00,60.9,58.6,29.74,NW,317,6.0,23.0,92,0.05,,,0.66,Wunderground v.1.15,2013-10-07 19:51:00,
2013-10-07 15:57:00,60.8,58.5,29.74,WNW,300,6.0,23.0,92,0.00,,,0.66,Wunderground v.1.15,2013-10-07 19:57:00,
2013-10-07 16:02:00,60.5,58.2,29.76,NW,314,6.0,23.0,92,0.00,,,0.66,Wunderground v.1.15,2013-10-07 20:02:00,
2013-10-07 16:08:00,60.3,57.4,29.76,North,360,8.0,23.0,90,0.00,,,0.66,Wunderground v.1.15,2013-10-07 20:08:00,
2013-10-07 16:14:00,60.2,57.3,29.76,NW,304,7.0,23.0,90,0.00,,,0.66,Wunderground v.1.15,2013-10-07 20:14:00,
2013-10-07 16:20:00,60.2,57.3,29.77,WNW,303,7.0,23.0,90,0.00,,,0.66,Wunderground v.1.15,2013-10-07 20:20:00,
2013-10-07 16:25:00,60.1,57.2,29.78,NW,322,7.0,23.0,90,0.00,,,0.66,Wunderground v.1.15,2013-10-07 20:25:00,
2013-10-07 16:31:00,60.0,57.1,29.79,WNW,294,5.0,23.0,90,0.00,,,0.66,Wunderground v.1.15,2013-10-07 20:31:00,
2013-10-07 16:37:00,60.0,57.1,29.81,WNW,295,4.0,23.0,90,0.00,,,0.66,Wunderground v.1.15,2013-10-07 20:37:00,
2013-10-07 16:43:00,60.1,57.2,29.82,NW,306,4.0,23.0,90,0.00,,,0.66,Wunderground v.1.15,2013-10-07 20:43:00,
2013-10-07 16:49:00,60.0,55.8,29.82,WNW,288,7.0,23.0,86,0.00,,,0.66,Wunderground v.1.15,2013-10-07 20:49:00,
2013-10-07 16:55:00,59.7,54.9,29.83,NW,304,10.0,23.0,84,0.00,,,0.66,Wunderground v.1.15,2013-10-07 20:55:00,
2013-10-07 17:00:00,59.2,54.0,29.84,WNW,286,12.0,12.0,83,0.00,,,0.66,Wunderground v.1.15,2013-10-07 21:00:00,
2013-10-07 17:06:00,58.6,53.5,29.85,NW,306,12.0,23.0,83,0.00,,,0.66,Wunderground v.1.15,2013-10-07 21:06:00,
2013-10-07 17:12:00,58.3,53.2,29.84,WNW,288,10.0,23.0,83,0.00,,,0.66,Wunderground v.1.15,2013-10-07 21:12:00,
2013-10-07 17:18:00,58.0,53.2,29.85,NW,324,9.0,23.0,84,0.00,,,0.66,Wunderground v.1.15,2013-10-07 21:18:00,
2013-10-07 17:23:00,57.8,53.0,29.85,West,276,8.0,23.0,84,0.00,,,0.66,Wunderground v.1.15,2013-10-07 21:23:00,
2013-10-07 17:29:00,57.6,52.5,29.84,NNW,330,8.0,23.0,83,0.00,,,0.66,Wunderground v.1.15,2013-10-07 21:29:00,
2013-10-07 17:35:00,57.6,52.5,29.85,WNW,289,9.0,23.0,83,0.00,,,0.66,Wunderground v.1.15,2013-10-07 21:35:00,
2013-10-07 17:41:00,57.5,52.4,29.85,WNW,299,9.0,23.0,83,0.00,,,0.66,Wunderground v.1.15,2013-10-07 21:41:00,
2013-10-07 17:46:00,57.5,52.4,29.85,NNW,331,9.0,23.0,83,0.00,,,0.66,Wunderground v.1.15,2013-10-07 21:46:00,
2013-10-07 17:52:00,57.3,51.9,29.86,NW,304,8.0,23.0,82,0.00,,,0.66,Wunderground v.1.15,2013-10-07 21:52:00,
2013-10-07 17:58:00,57.3,51.9,29.87,WNW,297,8.0,23.0,82,0.00,,,0.66,Wunderground v.1.15,2013-10-07 21:58:00,
2013-10-07 18:04:00,57.3,51.9,29.88,WNW,292,9.0,23.0,82,0.00,,,0.66,Wunderground v.1.15,2013-10-07 22:04:00,
2013-10-07 18:10:00,57.4,51.6,29.87,West,277,9.0,23.0,81,0.00,,,0.66,Wunderground v.1.15,2013-10-07 22:10:00,
2013-10-07 18:16:00,57.3,51.5,29.88,WNW,285,8.0,23.0,81,0.00,,,0.66,Wunderground v.1.15,2013-10-07 22:16:00,
2013-10-07 18:22:00,57.2,51.4,29.89,WNW,282,8.0,23.0,81,0.00,,,0.66,Wunderground v.1.15,2013-10-07 22:22:00,
2013-10-07 18:27:00,57.2,51.4,29.89,NW,311,8.0,23.0,81,0.00,,,0.66,Wunderground v.1.15,2013-10-07 22:27:00,
2013-10-07 18:33:00,57.2,51.4,29.89,NW,304,8.0,23.0,81,0.00,,,0.66,Wunderground v.1.15,2013-10-07 22:33:00,
2013-10-07 18:39:00,57.2,51.4,29.89,West,268,7.0,23.0,81,0.00,,,0.66,Wunderground v.1.15,2013-10-07 22:39:00,
2013-10-07 18:45:00,57.2,51.4,29.89,West,279,7.0,23.0,81,0.00,,,0.66,Wunderground v.1.15,2013-10-07 22:45:00,
2013-10-07 18:50:00,57.2,51.4,29.89,NW,309,6.0,6.0,81,0.00,,,0.66,Wunderground v.1.15,2013-10-07 22:50:00,
2013-10-07 18:56:00,57.1,51.3,29.89,WNW,291,6.0,23.0,81,0.00,,,0.66,Wunderground v.1.15,2013-10-07 22:56:00,
2013-10-07 19:02:00,57.1,51.7,29.90,WNW,299,6.0,23.0,82,0.00,,,0.66,Wunderground v.1.15,2013-10-07 23:02:00,
2013-10-07 19:08:00,57.0,51.6,29.90,WNW,283,6.0,23.0,82,0.00,,,0.66,Wunderground v.1.15,2013-10-07 23:08:00,
2013-10-07 19:14:00,56.9,51.5,29.90,West,279,5.0,23.0,82,0.00,,,0.66,Wunderground v.1.15,2013-10-07 23:14:00,
2013-10-07 19:20:00,56.9,51.5,29.90,WNW,294,4.0,4.0,82,0.00,,,0.66,Wunderground v.1.15,2013-10-07 23:20:00,
2013-10-07 19:26:00,56.8,51.4,29.90,NW,320,3.0,23.0,82,0.00,,,0.66,Wunderground v.1.15,2013-10-07 23:26:00,
2013-10-07 19:32:00,56.6,51.2,29.91,NNW,341,3.0,23.0,82,0.00,,,0.66,Wunderground v.1.15,2013-10-07 23:32:00,
2013-10-07 19:37:00,56.6,51.2,29.91,NNW,342,3.0,23.0,82,0.00,,,0.66,Wunderground v.1.15,2013-10-07 23:37:00,
2013-10-07 19:43:00,56.6,51.2,29.92,NW,322,3.0,23.0,82,0.00,,,0.66,Wunderground v.1.15,2013-10-07 23:43:00,
2013-10-07 19:49:00,56.5,51.4,29.92,WNW,302,2.0,23.0,83,0.00,,,0.66,Wunderground v.1.15,2013-10-07 23:49:00,
2013-10-07 19:55:00,56.5,51.4,29.92,NW,315,3.0,23.0,83,0.00,,,0.66,Wunderground v.1.15,2013-10-07 23:55:00,
2013-10-07 20:00:00,56.5,51.4,29.92,West,280,3.0,3.0,83,0.00,,,0.66,Wunderground v.1.15,2013-10-08 00:00:00,
2013-10-07 20:06:00,56.6,51.2,29.92,WNW,298,5.0,23.0,82,0.00,,,0.66,Wunderground v.1.15,2013-10-08 00:06:00,
2013-10-07 20:12:00,56.6,51.2,29.92,WNW,302,4.0,23.0,82,0.00,,,0.66,Wunderground v.1.15,2013-10-08 00:12:00,
2013-10-07 20:18:00,56.6,51.2,29.92,WNW,295,5.0,23.0,82,0.00,,,0.66,Wunderground v.1.15,2013-10-08 00:18:00,
2013-10-07 20:23:00,56.6,51.2,29.92,WNW,298,5.0,23.0,82,0.00,,,0.66,Wunderground v.1.15,2013-10-08 00:23:00,
2013-10-07 20:29:00,56.6,51.2,29.92,WNW,287,5.0,23.0,82,0.00,,,0.66,Wunderground v.1.15,2013-10-08 00:29:00,
2013-10-07 20:35:00,56.4,51.0,29.92,WNW,289,3.0,23.0,82,0.00,,,0.66,Wunderground v.1.15,2013-10-08 00:35:00,
2013-10-07 20:41:00,56.3,51.2,29.92,WNW,295,2.0,23.0,83,0.00,,,0.66,Wunderground v.1.15,2013-10-08 00:41:00,
2013-10-07 20:46:00,56.1,51.0,29.93,WNW,295,2.0,23.0,83,0.00,,,0.66,Wunderground v.1.15,2013-10-08 00:46:00,
2013-10-07 20:52:00,56.0,51.2,29.93,WNW,295,2.0,23.0,84,0.00,,,0.66,Wunderground v.1.15,2013-10-08 00:52:00,
2013-10-07 20:58:00,55.8,51.0,29.93,WNW,295,1.0,23.0,84,0.00,,,0.66,Wunderground v.1.15,2013-10-08 00:58:00,
2013-10-07 21:04:00,55.9,51.1,29.94,WNW,296,2.0,23.0,84,0.00,,,0.66,Wunderground v.1.15,2013-10-08 01:04:00,
2013-10-07 21:10:00,55.8,50.7,29.93,WNW,294,2.0,23.0,83,0.00,,,0.66,Wunderground v.1.15,2013-10-08 01:10:00,
2013-10-07 21:16:00,56.1,50.7,29.93,NW,312,4.0,23.0,82,0.00,,,0.66,Wunderground v.1.15,2013-10-08 01:16:00,
2013-10-07 21:22:00,56.2,50.4,29.94,WNW,296,5.0,23.0,81,0.00,,,0.66,Wunderground v.1.15,2013-10-08 01:22:00,
2013-10-07 21:27:00,56.2,50.4,29.93,WNW,296,5.0,23.0,81,0.00,,,0.66,Wunderground v.1.15,2013-10-08 01:27:00,
2013-10-07 21:33:00,56.2,50.4,29.93,NW,308,5.0,23.0,81,0.00,,,0.66,Wunderground v.1.15,2013-10-08 01:33:00,
2013-10-07 21:39:00,56.2,50.4,29.94,WNW,302,5.0,23.0,81,0.00,,,0.66,Wunderground v.1.15,2013-10-08 01:39:00,
2013-10-07 21:45:00,56.2,50.1,29.93,WNW,290,5.0,23.0,80,0.00,,,0.66,Wunderground v.1.15,2013-10-08 01:45:00,
2013-10-07 21:50:00,56.2,49.8,29.94,WNW,298,6.0,23.0,79,0.00,,,0.66,Wunderground v.1.15,2013-10-08 01:50:00,
2013-10-07 21:56:00,56.2,49.1,29.94,NW,313,6.0,23.0,77,0.00,,,0.66,Wunderground v.1.15,2013-10-08 01:56:00,
2013-10-07 22:02:00,56.2,49.1,29.94,NW,304,7.0,23.0,77,0.00,,,0.66,Wunderground v.1.15,2013-10-08 02:02:00,
2013-10-07 22:08:00,56.0,48.9,29.94,WNW,292,7.0,23.0,77,0.00,,,0.66,Wunderground v.1.15,2013-10-08 02:08:00,
2013-10-07 22:14:00,56.0,48.2,29.95,West,273,7.0,23.0,75,0.00,,,0.66,Wunderground v.1.15,2013-10-08 02:14:00,
2013-10-07 22:19:00,56.0,47.8,29.95,NNW,333,7.0,23.0,74,0.00,,,0.66,Wunderground v.1.15,2013-10-08 02:19:00,
2013-10-07 22:25:00,55.8,47.3,29.95,NW,326,5.0,23.0,73,0.00,,,0.66,Wunderground v.1.15,2013-10-08 02:25:00,
2013-10-07 22:30:00,55.7,46.8,29.95,NNW,327,6.0,6.0,72,0.00,,,0.66,Wunderground v.1.15,2013-10-08 02:30:00,
2013-10-07 22:36:00,55.6,46.3,29.95,WNW,298,6.0,23.0,71,0.00,,,0.66,Wunderground v.1.15,2013-10-08 02:36:00,
2013-10-07 22:42:00,55.6,46.3,29.96,NNW,337,6.0,23.0,71,0.00,,,0.66,Wunderground v.1.15,2013-10-08 02:42:00,
2013-10-07 22:48:00,55.6,46.0,29.96,NW,308,7.0,23.0,70,0.00,,,0.66,Wunderground v.1.15,2013-10-08 02:48:00,
2013-10-07 22:54:00,55.5,46.2,29.97,WNW,300,7.0,23.0,71,0.00,,,0.66,Wunderground v.1.15,2013-10-08 02:54:00,
2013-10-07 23:00:00,55.1,45.9,29.97,WNW,296,5.0,23.0,71,0.00,,,0.66,Wunderground v.1.15,2013-10-08 03:00:00,
2013-10-07 23:05:00,55.0,46.1,29.97,NW,325,5.0,23.0,72,0.00,,,0.66,Wunderground v.1.15,2013-10-08 03:05:00,
2013-10-07 23:11:00,54.9,45.7,29.98,WNW,290,6.0,23.0,71,0.00,,,0.66,Wunderground v.1.15,2013-10-08 03:11:00,
2013-10-07 23:17:00,54.7,45.8,29.98,WNW,292,6.0,23.0,72,0.00,,,0.66,Wunderground v.1.15,2013-10-08 03:17:00,
2013-10-07 23:23:00,54.5,46.0,29.98,West,276,6.0,23.0,73,0.00,,,0.66,Wunderground v.1.15,2013-10-08 03:23:00,
2013-10-07 23:28:00,54.4,45.6,29.98,NW,307,6.0,23.0,72,0.00,,,0.66,Wunderground v.1.15,2013-10-08 03:28:00,
2013-10-07 23:34:00,54.3,45.1,29.98,NW,315,6.0,23.0,71,0.00,,,0.66,Wunderground v.1.15,2013-10-08 03:34:00,
2013-10-07 23:40:00,54.3,45.1,29.98,WNW,303,5.0,5.0,71,0.00,,,0.66,Wunderground v.1.15,2013-10-08 03:40:00,
2013-10-07 23:46:00,54.3,45.1,29.98,NNW,336,4.0,23.0,71,0.00,,,0.66,Wunderground v.1.15,2013-10-08 03:46:00,
2013-10-07 23:52:00,54.4,44.8,29.99,WNW,302,6.0,23.0,70,0.00,,,0.66,Wunderground v.1.15,2013-10-08 03:52:00,
2013-10-07 23:58:00,54.3,45.1,29.99,WNW,292,5.0,23.0,71,0.00,,,0.66,Wunderground v.1.15,2013-10-08 03:58:00,